Location: Unspecified
(0.0000°N, 0.0000°E)
Time: 11:40:48
(UTC+00:00)

A-11 Canister half - Pass Details

Date: 10 August 2021
Orbit: 1515 x 1685 km, 47.2° (Epoch: 27 September)

Event Time Altitude Azimuth Distance (km) Brightness Sun altitude
Rises 11:05:15 0° 217° (SW) 4,657 11.3 68.6°
Reaches altitude 10° 11:08:17 10° 216° (SW) 3,672 10.9 69.1°
Maximum altitude 11:17:31 80° 129° (SE) 1,543 10.7 70.6°
Drops below altitude 10° 11:26:54 10° 43° (NE) 3,728 11.5 71.9°
Sets 11:30:00 0° 42° (NE) 4,730 11.8 72.3°
